Regional Weather Roundup
Issued by NWS

Home | Current Version | Previous Version | Text Only | Print | Product List | Glossary On
Versions: 1 2 3 4 5 6 7 8 9 10 11 12 13 14 15 16 17 18 19 20 21 22 23 24 25 26 27 28 29 30 31 32 33 34 35 36 37 38 39 40 41 42 43 44 45 46 47 48 49 50
000
ASUS45 KABQ 191310
RWRNM
NEW MEXICO REGIONAL WEATHER ROUNDUP
NATIONAL WEATHER SERVICE ALBUQUERQUE NM
600 AM MST THU JAN 19 2017

NOTE: "FAIR" MEANS FEW OR NO CLOUDS BELOW 12,000 FEET AGL WITH NO
       SIGNIFICANT WEATHER OR OBSTRUCTIONS TO VISION.

      THIS PRODUCT IS RELEASED AS TWO VERSIONS.  ONE VERSION NEAR
      THE TOP OF THE HOUR CONTAINING PRELIMINARY DATA FROM ALBUQUERQUE
      AND OTHER STATIONS.  A FINAL VERSION WITH ADDITIONAL DATA IS
      ISSUED ABOUT 10 MINUTES AFTER THE HOUR.

NMZ501-503-504-510>518-191400-
NORTHWEST PLATEAU/NORTHCENTRAL MOUNTAINS

CITY           SKY/WX    TMP DP  RH WIND       PRES   REMARKS
FARMINGTON     FAIR      24  22  91 E8        29.91F WCI  15
LOS ALAMOS     FAIR      28  25  88 CALM      29.88S
SANTA FE       FAIR      31  24  75 N10       29.86S WCI  22
TAOS           CLOUDY    21  12  68 CALM      29.89S VSB 1
ANGEL FIRE     FAIR      25  19  77 SW16G24   29.83F WCI  12

$$
NMZ402-403-502-505>509-191400-
WESTCENTRAL MOUNTAINS/SOUTHWEST MOUNTAINS

CITY           SKY/WX    TMP DP  RH WIND       PRES   REMARKS
GALLUP         CLOUDY    32  29  88 SW12      29.96F WCI  23
GRANTS         CLOUDY    27  25  92 SW5       29.97F WCI  22
SILVER CITY    FAIR      28  26  94 NW10      29.99F WCI  18

$$
NMZ407-409-411-412-191400-
SOUTHERN DESERTS

CITY           SKY/WX    TMP DP  RH WIND       PRES   REMARKS
DEMING         FAIR      34  32  92 CALM      30.00R
LAS CRUCES     FAIR      37  32  84 W15       29.97S WCI  28
HOLLOMAN AFB   FAIR      34  32  91 CALM      29.95S
ALAMOGORDO     FAIR      39  32  75 E3        29.93S
T OR C         FAIR      39  27  62 NW14      29.92R WCI  31

$$
NMZ519>523-191400-
CENTRAL VALLEYS/CENTRAL HIGHLANDS

CITY           SKY/WX    TMP DP  RH WIND       PRES   REMARKS
ALBUQUERQUE    FAIR      33  29  85 S3        29.92S
DOUBLE EAGLE   CLEAR     25  23  93 SW3       29.92S
MORIARTY ARPT  FAIR      35  24  63 S5        29.86R WCI  31
CLINES CORNERS FAIR      29  23  78 NW36G45   29.77S WCI  12
BELEN          FAIR      32  28  85 SW8       29.93R WCI  25
SOCORRO        FAIR      31  28  88 SW5       29.93R WCI  27

$$
NMZ524>526-539-540-191400-
SOUTHCENTRAL MOUNTAINS

CITY           SKY/WX    TMP DP  RH WIND       PRES   REMARKS
RUIDOSO        FAIR      37  16  41 W10G21    29.83S WCI  30

$$
NMZ527>531-191400-
NORTHEAST HIGHLANDS/NORTHEAST PLAINS

CITY           SKY/WX    TMP DP  RH WIND       PRES   REMARKS
LAS VEGAS      FAIR      32  15  49 N9        29.68R WCI  24
RATON          FAIR      21  15  78 NE7       29.63S WCI  12
CLAYTON        FAIR      35  21  56 NW13      29.59S WCI  26

$$
NMZ532>537-191400-
EASTCENTRAL PLAINS

CITY           SKY/WX    TMP DP  RH WIND       PRES   REMARKS
TUCUMCARI      FAIR      32  26  78 W9        29.62S WCI  24
CANNON AFB     FAIR      38  35  91 SW16      29.66S WCI  29
CLOVIS AIRPORT FAIR      37  28  70 W20G26    29.65F WCI  27

$$
NMZ028-029-538-191400-
SOUTHEAST PLAINS

CITY           SKY/WX    TMP DP  RH WIND       PRES   REMARKS
ROSWELL        FAIR      32  28  85 W6        29.76F WCI  26
ARTESIA        FAIR      45  34  65 SW14      29.79R
CARLSBAD       FAIR      49  34  56 W20       29.78F
HOBBS          CLEAR     36  34  93 SW7       29.79  WCI  30


$$



USA.gov is the U.S. government's official web portal to all federal, state and local government web resources and services.